• MPC Preparation (Info)

  • MPEC 2014-C35 : 2014 CD13

    The following Minor Planet Electronic Circular may be linked-to from your own Web pages, but must not otherwise be redistributed electronically.

    A form allowing access to any MPEC is at the bottom of this page.


    Read MPEC 2014-C34 Read MPEC 2014-C36


    M.P.E.C. 2014-C35                                Issued 2014 Feb. 11, 22:00 UT
    
         The Minor Planet Electronic Circulars contain information on unusual
             minor planets and routine data on comets.  They are published
       on behalf of Commission 20 of the International Astronomical Union by the
              Minor Planet Center, Smithsonian Astrophysical Observatory,
                              Cambridge, MA 02138, U.S.A.
    
                 Prepared using the Tamkin Foundation Computer Network
    
                                  MPC@CFA.HARVARD.EDU
                URL https://www.minorplanetcenter.net/    ISSN 1523-6714
    
                                       2014 CD13
    
    Observations:
         K14C13D* C2014 02 09.56009 11 51 58.132+02 57 01.52         20.2 wLEC035F51
         K14C13D  C2014 02 09.57235 11 51 59.786+02 56 38.38         20.2 wLEC035F51
         K14C13D  C2014 02 09.58460 11 52 01.427+02 56 15.59         20.3 wLEC035F51
         K14C13D  C2014 02 09.59682 11 52 03.076+02 55 52.44         20.2 wLEC035F51
         K14C13D |C2014 02 10.34405 11 53 55.86 +02 32 07.5          19.9 VuEC035807
         K14C13D |C2014 02 10.34967 11 53 56.68 +02 31 56.2          20.4 VuEC035807
         K14C13D |C2014 02 10.35531 11 53 57.50 +02 31 45.1          19.9 VuEC035807
         K14C13D KC2014 02 10.91241311 55 28.05 +02 12 32.2          19.9 VqEC035K91
         K14C13D KC2014 02 10.91840811 55 28.98 +02 12 19.3          19.8 VqEC035K91
         K14C13D KC2014 02 10.92183411 55 29.50 +02 12 11.5          20.0 VqEC035K91
    
    Observer details:
    807 Cerro Tololo.  Observers T. Linder, R. Holmes.  Measurers T. Linder,
        R. Holmes, K. Baker.  0.41-m f/11 Ritchey-Chretien + CCD.
    F51 Pan-STARRS 1, Haleakala.  Observers N. Primak, A. Schultz, T. Goggia,
        M. Willman.  Measurer PS1 Science Consortium.  1.8-m Ritchey-Chretien
        + CCD.
    K91 Sutherland-LCOGT A.  Observer T. Lister.  1.0-m f/8 Ritchey-Chretien + CCD.
    
    Orbital elements:
    2014 CD13                                           PHA, Earth MOID = 0.0216 AU
    Epoch 2013 Nov. 4.0 TT = JDT 2456600.5                  MPC
    M 308.54161              (2000.0)            P               Q
    n   0.31806144     Peri.  284.45038     -0.22460830     +0.97291059
    a   2.1255045      Node   332.38504     -0.84237611     -0.22209647
    e   0.7452866      Incl.    6.78171     -0.48985060     -0.06417270
    P   3.10           H   21.1           G   0.15           U   9
    Residuals in seconds of arc
    140209 F51  0.1-  0.1+    140210 807  0.1+  0.1+    140210 K91  0.1-  0.0
    140209 F51  0.1+  0.1-    140210 807  0.2+  0.2+    140210 K91  0.2-  0.5-
    140209 F51  0.0   0.1+    140210 807  0.3+  0.4+
    140209 F51  0.0   0.1-    140210 K91  0.0   0.2+
    
    Ephemeris:
    2014 CD13                a,e,i = 2.13, 0.75, 7                   q = 0.5414
    Date    TT    R. A. (2000) Decl.     Delta      r     Elong.  Phase     V
    2014 01 12    11 10 25.7 +09 54 47   0.7717  1.5711   126.6    30.2    22.8
    ...
    2014 01 27    11 28 41.3 +07 22 27   0.5078  1.3985   136.7    28.9    21.6
    ...
    2014 02 04    11 40 40.0 +05 15 22   0.3774  1.3020   141.3    28.2    20.8
    ...
    2014 02 10    11 53 03.5 +02 43 13   0.2846  1.2275   143.6    28.5    20.1
    2014 02 11    11 55 40.9 +02 09 08   0.2696  1.2149   143.8    28.7    19.9
    2014 02 12    11 58 32.4 +01 31 27   0.2547  1.2023   143.9    28.9    19.8
    ...
    2014 02 18    12 24 08.8 -04 19 23   0.1689  1.1258   141.8    32.9    18.9
    ...
    2014 02 26    14 28 55.9 -29 04 14   0.07716 1.0217   112.2    63.8    17.8
    ...
    2014 03 13    22 13 27.5 -24 12 27   0.1980  0.8247    28.2   145.3    24.8
    
    A. U. Tomatic                (C) Copyright 2014 MPC           M.P.E.C. 2014-C35
    

    Read MPEC 2014-C34 Read MPEC 2014-C36


    MPEC number:

    Enter an MPEC number in one of the following forms:

    • 1997-B01 (the full form)
    • J97B01 (the packed version of the full form)
    • B01 (the abbreviated form)